Showing default

TIANHUI 7, 67300

Orbit data source: Space-Track

TIANHUI 7, 67300 is a payload satellite owned by G. Cehui dili (CN) in SSO that was launched on Tue, 30 Dec 2025 UTC via a CHANG ZHENG 4B launch vehicle from the Jiuquan Satellite Launch Center, China (JSC). Payload-class satellites include a variety of spacecraft equipped with specific instruments for various scientific and technological missions. These include communications satellites like Starlink; space stations such as the ISS; scientific satellites like the Hubble; Earth observation satellites from companies like Planet Labs, Umbra, and HawkEye 360; GPS; miniature CubeSats for education and research; and military/defense satellites.

Loading next visibility...
Identifier
67300, 2025-314A
Orbit
SSO
Country
Flag of CNCN / PRC
Related business
Manufacturer
CAST
Mission
Operational Civil Imaging
Bus & Motor
CAST-2000?, Unknown motor
Mass
~1,000 kg wet, ~1,000 kg dry
Launch date (UTC)
2025-12-30 (6 months ago)
Launch vehicle
CHANG ZHENG 4B
Launch site
Jiuquan Satellite Launch Center, China (JSC)
Object type
Payload
Rocket body
Debris
Shape & HBR
Box + 2 Pan, 14.5 m
Radar Cross Section
2.045 m², Large (>1 m²)

Expand to show TLE details & history
Last TLE update: 2 days ago

TLE from 2 days ago
0 TIANHUI 7
1 67300U 25314A   26170.19660604  .00004815  00000-0  19030-3 0  9993
2 67300  97.4024 245.8440 0001665 298.0319  62.0751 15.25965892 26091
Epoch: 2026-06-19T04:43Z
TLE epoch observation values (Epoch: 2026-06-19T04:43:06.761Z)
Latitude
-0.00003°
Longitude
-92.36322°
Altitude
490.45 km
Speed
7.62 km/s
True Right ascension
16h 23m 22s
True Declination
0° 00' 00"
Sunlit
Object was in full shadow at epoch
Visualization orbit readout
Latitude
Unknown
Longitude
Unknown
Altitude
Unknown
Speed
Unknown
Apparent Right ascension
Unknown
Apparent Declination
Unknown
Sunlit
N/A
Visualization observer readout
Local Sidereal Time
07:22:46
Azimuth
Unknown
Elevation
Unknown
Doppler factor
Unknown
Orbital elements
Apogee altitude
485.987 km
Perigee altitude
483.702 km
Semi-major axis
6,862.981 km
Eccentricity
0.00017
Inclination
97.4024°
RAAN
245.844°
Arg. of periapsis
298.0319°
True anomaly
62.09196°
Mean anomaly
62.0751°
Eccentric anomaly
62.08353°
Mean motion
3.81746 °/min
Orbital period
94.3 mins
BSTAR
0.0001903
Loading maneuver chart data...
Computing Atmospheric mass density...
Loading historical data...
Loading historical data...
Loading historical data...
Loading historical data...
Loading historical data...
Loading historical data...
Loading historical data...
Other satellites on launch #314 in the year 2025 (2025-12-30 UTC)

Documentation

Showing up to 5 results
|